Wind_Speed
34 34 34 34 33 31 30 29 28 26 24 22 20 21 20 19 18 17 16 15 15 14 14 14 13 12 12 13 12 12 12 12 12 12 13 12 12 12 13 13 13 13 13 13
35 34 35 35 35 34 33 32 30 29 26 24 23 22 22 21 20 19 18 18 18 17 16 16 15 14 14 14 15 15 15 15 15 14 15 14 14 14 14 14 14 15 14 15
36 35 36 37 36 36 35 34 32 31 28 26 24 23 23 23 22 20 20 20 20 19 18 18 18 17 16 16 16 17 17 17 17 17 16 16 15 15 15 16 16 16 16 16
38 37 38 36 35 36 35 35 34 32 30 28 25 24 24 23 23 21 21 21 21 20 20 20 20 19 18 18 18 18 19 19 19 20 19 18 17 17 17 17 17 17 17 17
39 39 39 37 36 36 36 35 35 33 32 31 29 27 26 25 24 23 23 23 22 22 22 21 21 20 19 19 19 20 20 20 20 20 20 20 20 19 18 17 18 18 18 18
38 39 39 37 36 35 35 35 34 33 33 32 31 29 27 27 26 25 25 24 23 23 23 23 22 21 21 21 21 21 22 23 22 21 22 22 22 22 20 19 19 20 20 20
38 38 38 36 36 36 36 35 34 33 34 34 33 31 30 29 29 27 27 26 25 25 25 25 24 23 23 24 23 23 24 24 24 23 23 23 23 22 22 22 21 21 21 21
38 38 37 35 36 36 36 35 34 33 33 34 34 33 33 32 32 31 30 29 29 28 27 27 27 27 26 25 24 24 24 24 25 25 24 23 22 23 23 24 23 22 22 23
38 37 36 35 35 35 35 36 35 35 34 34 34 34 34 34 34 34 34 33 32 31 30 30 30 29 29 27 26 26 26 26 26 26 26 25 24 24 25 25 25 24 24 24
37 36 36 36 36 36 36 36 36 36 35 35 35 35 35 35 35 36 36 36 35 35 34 33 33 33 31 30 29 29 29 29 29 29 28 27 26 26 26 27 27 26 26 26
36 35 36 36 36 37 36 36 36 36 36 36 37 37 37 37 37 36 37 37 36 35 35 36 35 35 34 33 32 31 31 31 32 32 31 29 28 28 28 27 28 27 27 28
35 35 36 37 37 38 37 36 36 37 37 36 36 37 37 37 38 38 38 37 38 38 38 38 38 37 36 35 35 34 33 33 33 33 33 32 31 30 29 29 29 29 30 29
36 36 37 37 38 38 37 36 36 36 37 37 37 37 37 38 38 39 39 38 39 39 39 39 38 38 38 37 36 35 35 35 34 34 34 34 34 33 32 32 32 32 32 31
37 37 37 37 37 37 38 37 36 37 37 37 37 37 37 38 39 39 40 40 40 40 40 39 40 39 38 38 38 38 37 36 36 35 35 35 35 35 34 33 33 33 33 33
37 37 36 36 36 37 38 38 37 37 37 37 37 37 38 38 38 39 39 39 39 39 39 39 39 39 39 39 39 39 38 37 37 37 36 35 35 35 34 33 33 33 33 33
37 36 35 36 36 37 38 38 38 37 37 37 38 38 38 38 39 39 39 39 39 38 39 39 40 40 40 39 39 39 38 38 38 38 36 36 36 36 35 35 34 34 34 34
35 36 36 36 36 37 37 37 38 37 37 38 38 38 38 38 38 38 38 38 38 38 39 39 40 40 40 39 38 38 39 39 39 38 37 36 36 36 36 36 35 35 34 34
34 35 36 36 35 35 35 36 37 38 38 38 38 37 37 37 36 37 38 38 39 39 39 39 39 40 40 39 38 38 38 38 38 37 37 37 36 36 35 36 36 36 35 34
32 32 33 33 34 34 34 34 35 36 37 37 37 36 36 36 36 36 36 37 38 38 38 38 39 39 39 39 38 39 39 39 38 36 36 35 35 35 35 36 36 34 34 34
32 31 32 32 32 32 32 33 33 34 35 36 36 36 36 36 35 35 35 35 36 36 36 37 37 37 37 37 37 38 37 36 35 35 34 34 33 34 34 34 33 33 33 33
31 32 32 31 31 32 32 33 33 34 34 34 34 35 35 35 35 34 34 33 33 34 35 35 35 35 35 35 36 36 35 34 33 33 33 33 33 33 34 33 33 34 33 33
29 29 30 30 31 31 32 32 32 32 33 32 33 33 34 34 34 34 33 33 33 33 33 33 33 33 34 34 33 32 31 31 30 31 32 32 33 33 33 33 33 33 33 33
26 26 27 28 29 30 30 30 30 30 30 31 32 32 32 33 33 33 32 31 31 32 32 32 32 32 32 31 31 30 30 29 29 30 31 31 31 31 32 32 32 32 32 32
23 24 25 25 26 27 28 28 29 29 29 29 30 30 30 31 31 31 31 30 30 30 31 31 32 31 30 30 30 31 31 31 30 30 31 31 30 29 29 30 30 31 31 31
20 22 23 23 23 24 25 26 26 27 28 28 28 28 28 28 28 28 28 29 30 30 31 31 31 30 29 30 29 29 30 30 30 29 28 27 27 27 27 27 28 28 29 29
18 19 19 19 21 22 23 22 23 24 25 25 26 26 26 27 27 27 27 27 27 28 28 28 27 28 28 28 28 27 28 28 27 26 26 26 26 25 25 26 26 26 26 25
17 18 18 18 19 20 21 21 21 21 22 23 23 24 25 25 26 27 27 26 26 26 27 28 28 27 27 27 27 27 27 27 26 26 25 25 25 25 25 24 24 24 24 24
Wind_Direction
233 232 234 236 237 238 242 245 248 251 253 254 257 256 257 259 261 263 263 265 271 277 284 288 293 295 296 300 300 296 299 303 305 304 307 309 308 313 317 319 319 319 320 320
234 234 234 235 236 238 240 243 246 249 251 254 256 256 256 259 261 264 263 264 267 272 278 281 285 289 291 295 296 293 291 294 295 296 296 297 297 302 307 310 313 314 314 316
235 235 236 236 237 239 241 243 246 249 251 253 253 255 257 259 259 261 263 263 265 267 273 278 282 285 288 290 293 292 291 291 289 289 289 289 291 296 300 302 306 308 309 312
236 236 238 239 240 242 243 244 246 249 250 252 252 253 256 257 257 258 261 263 263 265 270 275 277 281 284 288 290 289 286 287 289 288 287 283 285 289 293 298 301 304 307 311
237 238 241 241 242 243 244 245 246 248 248 249 250 252 255 257 258 257 259 261 261 264 268 271 272 276 279 283 286 286 284 283 286 286 287 285 284 286 289 293 294 297 301 305
239 240 242 243 245 245 245 246 246 246 247 248 249 251 254 256 258 258 258 258 260 262 265 266 269 272 276 281 283 284 283 281 280 281 282 284 285 286 287 288 291 294 298 301
240 241 243 243 244 245 246 246 246 246 247 248 250 251 252 253 255 257 257 260 261 262 263 266 268 271 275 278 282 284 283 280 279 279 279 281 282 284 286 288 290 292 295 298
241 242 243 244 244 246 248 248 248 248 249 250 251 251 252 253 254 256 256 258 261 262 264 266 269 271 274 278 282 284 283 280 280 279 280 281 282 281 282 286 286 289 292 294
243 243 244 245 246 247 248 249 248 249 250 250 251 251 252 253 254 256 256 256 258 260 263 266 268 269 272 276 279 280 281 281 281 282 282 282 282 283 283 285 286 287 289 291
245 244 244 245 246 247 248 249 249 250 250 251 252 252 253 252 253 255 256 256 258 259 261 265 269 268 270 273 275 276 278 279 280 281 281 282 282 282 283 285 287 287 287 289
246 246 244 245 246 247 248 249 249 249 251 252 252 253 254 253 254 255 256 258 258 260 263 265 266 269 270 271 273 274 275 276 276 277 278 280 280 281 281 281 282 285 288 288
245 246 246 245 246 247 248 248 249 250 250 252 253 253 254 255 255 255 256 257 258 260 263 265 266 268 269 271 272 273 275 275 275 274 275 277 278 279 280 279 280 282 285 286
245 246 248 247 247 248 250 250 251 251 251 252 253 254 255 256 256 255 256 257 259 261 262 263 264 267 268 269 271 271 272 273 272 273 274 275 276 277 277 277 278 280 282 284
245 247 249 249 250 251 252 252 253 252 252 253 253 254 256 257 257 256 257 258 258 260 261 262 264 266 266 268 269 269 271 272 272 272 272 273 273 275 275 275 277 278 280 282
244 247 249 250 252 253 254 254 253 253 253 253 254 256 257 258 258 258 259 260 259 260 262 263 264 266 267 268 268 267 269 271 271 271 271 270 271 272 273 274 276 278 279 281
244 246 248 250 252 253 255 255 254 253 253 254 255 257 259 259 259 259 260 261 260 259 261 263 264 266 267 267 267 267 268 270 271 271 270 269 270 270 272 274 275 276 278 280
244 245 248 250 252 254 255 256 256 256 256 256 258 260 261 261 260 259 260 260 261 261 261 263 265 266 267 266 266 266 268 270 271 271 271 271 271 271 272 272 274 276 278 280
245 247 249 251 252 253 255 257 259 258 258 258 259 259 259 259 259 259 260 260 261 262 262 262 264 267 269 268 267 267 269 270 271 272 270 270 270 270 271 272 273 275 276 277
246 247 248 251 253 253 255 257 257 258 259 258 257 257 258 259 260 261 262 262 263 263 262 264 265 266 267 267 268 269 270 270 271 271 269 268 268 269 270 271 272 273 275 278
248 249 250 251 253 255 256 258 257 258 259 259 258 259 259 259 260 260 262 263 264 264 263 263 264 264 266 267 269 270 270 270 269 268 267 268 269 269 270 270 270 273 276 279
250 251 250 251 253 255 258 259 258 258 259 260 260 259 259 259 259 259 260 262 263 263 263 264 264 264 265 266 268 268 267 266 267 267 267 268 269 270 271 271 273 275 277 278
250 250 251 252 254 255 257 258 258 257 259 260 260 260 260 260 260 260 260 261 262 264 264 264 264 264 263 266 266 265 265 265 266 266 268 269 270 270 271 272 273 274 275 276
250 250 252 253 254 257 258 259 259 258 259 259 259 261 261 259 259 259 259 260 262 262 262 261 262 262 261 263 263 263 263 263 265 267 268 269 270 271 272 273 274 274 274 276
252 253 254 255 256 257 258 259 260 259 260 260 260 260 259 258 257 257 257 258 259 260 260 261 261 261 262 262 262 261 262 264 264 265 266 268 270 272 273 274 275 275 276 276
253 255 257 258 256 257 259 261 261 261 262 261 261 259 258 259 258 257 258 259 258 258 258 259 260 260 260 261 262 263 262 262 263 264 265 268 270 272 273 274 275 276 276 275
254 258 261 261 260 261 262 263 262 263 263 261 260 260 260 260 259 258 259 259 258 259 260 259 259 259 260 261 262 263 263 263 262 263 265 270 273 273 274 274 276 276 275 276
258 260 261 263 265 264 263 264 265 264 263 262 261 259 258 258 258 259 260 259 259 258 258 258 257 257 257 257 258 259 261 261 264 266 268 271 274 275 274 273 274 276 277 278
Height
5860 5864 5868 5871 5875 5878 5881 5883 5886 5889 5891 5894 5896 5898 5900 5901 5902 5902 5903 5903 5903 5903 5903 5903 5902 5901 5900 5899 5898 5897 5896 5896 5895 5894 5892 5891 5890 5888 5887 5885 5883 5881 5879 5876
5853 5857 5861 5864 5868 5871 5875 5877 5880 5883 5886 5889 5890 5892 5894 5895 5897 5897 5898 5899 5899 5899 5899 5898 5898 5897 5897 5896 5894 5894 5893 5892 5891 5890 5889 5888 5887 5885 5884 5882 5880 5878 5876 5874
5846 5850 5853 5857 5861 5864 5868 5871 5874 5877 5881 5883 5885 5887 5888 5890 5891 5892 5893 5893 5894 5894 5894 5894 5894 5893 5893 5892 5891 5890 5889 5888 5887 5886 5885 5884 5883 5882 5880 5878 5877 5875 5873 5871
5838 5842 5845 5852 5854 5858 5861 5864 5867 5870 5874 5876 5879 5880 5882 5884 5885 5886 5887 5888 5888 5889 5889 5889 5888 5888 5888 5887 5887 5886 5885 5884 5883 5882 5881 5880 5878 5877 5876 5874 5873 5871 5869 5867
5830 5833 5838 5843 5847 5850 5853 5856 5860 5863 5866 5869 5871 5873 5875 5877 5878 5880 5881 5881 5882 5883 5883 5883 5883 5883 5883 5882 5882 5881 5880 5879 5878 5877 5876 5875 5873 5872 5871 5869 5868 5867 5865 5863
5822 5826 5830 5837 5839 5842 5846 5849 5852 5855 5858 5861 5863 5866 5869 5870 5871 5873 5874 5875 5876 5877 5877 5877 5877 5877 5877 5876 5875 5875 5874 5873 5872 5871 5870 5869 5868 5867 5865 5864 5864 5862 5860 5859
5814 5817 5822 5828 5831 5834 5838 5842 5844 5847 5849 5852 5855 5858 5861 5863 5864 5866 5867 5867 5868 5869 5870 5870 5871 5871 5871 5870 5869 5868 5866 5866 5866 5865 5864 5863 5862 5861 5860 5859 5858 5857 5856 5854
5806 5810 5817 5819 5822 5826 5829 5832 5835 5838 5841 5844 5847 5850 5852 5854 5856 5858 5859 5860 5860 5861 5862 5863 5863 5864 5864 5863 5862 5861 5860 5859 5859 5859 5858 5857 5856 5854 5854 5854 5853 5851 5850 5848
5799 5805 5808 5811 5814 5817 5819 5823 5826 5829 5832 5835 5838 5840 5843 5845 5847 5849 5850 5851 5852 5853 5854 5855 5855 5855 5856 5856 5855 5855 5854 5853 5853 5852 5851 5850 5849 5849 5848 5847 5846 5845 5844 5842
5790 5795 5799 5802 5805 5807 5810 5813 5816 5819 5823 5825 5828 5831 5833 5836 5838 5839 5841 5842 5843 5844 5845 5846 5846 5847 5847 5847 5847 5847 5847 5846 5845 5845 5844 5843 5843 5842 5842 5841 5840 5838 5837 5835
5781 5786 5789 5792 5795 5798 5801 5804 5807 5810 5813 5815 5818 5821 5823 5825 5827 5829 5830 5832 5833 5835 5836 5837 5837 5838 5838 5838 5838 5838 5838 5838 5837 5837 5836 5836 5835 5835 5834 5834 5833 5832 5831 5829
5773 5776 5779 5783 5785 5788 5791 5794 5797 5800 5803 5805 5807 5810 5812 5814 5816 5818 5819 5821 5822 5824 5826 5827 5827 5828 5828 5829 5829 5829 5829 5829 5828 5828 5827 5827 5827 5827 5826 5826 5825 5824 5823 5822
5762 5765 5768 5772 5775 5778 5781 5784 5786 5789 5792 5795 5797 5799 5801 5803 5805 5806 5808 5810 5811 5813 5814 5815 5816 5817 5818 5818 5818 5819 5819 5819 5818 5818 5818 5818 5818 5818 5817 5817 5816 5815 5815 5813
5752 5755 5758 5762 5765 5767 5770 5773 5776 5779 5781 5784 5786 5788 5790 5792 5793 5795 5797 5799 5800 5801 5803 5804 5805 5806 5805 5806 5807 5808 5808 5808 5808 5809 5809 5809 5808 5808 5808 5808 5807 5806 5806 5804
5743 5746 5749 5752 5754 5757 5760 5762 5765 5768 5770 5773 5775 5777 5779 5780 5782 5784 5786 5787 5788 5789 5791 5792 5793 5794 5794 5795 5796 5797 5797 5798 5797 5798 5798 5798 5798 5798 5798 5798 5798 5797 5796 5795
5734 5737 5739 5742 5745 5747 5750 5752 5755 5757 5760 5762 5764 5766 5767 5769 5770 5772 5774 5775 5776 5778 5779 5780 5781 5782 5782 5783 5784 5785 5786 5787 5787 5787 5787 5787 5787 5787 5788 5788 5788 5787 5786 5785
5724 5727 5730 5733 5735 5738 5740 5742 5744 5746 5748 5750 5752 5754 5756 5757 5758 5760 5761 5762 5764 5766 5767 5768 5769 5770 5770 5771 5772 5774 5775 5775 5776 5776 5776 5776 5776 5777 5777 5778 5778 5777 5777 5776
5715 5718 5721 5723 5725 5728 5730 5732 5733 5735 5737 5739 5741 5742 5744 5745 5746 5748 5749 5750 5752 5753 5755 5756 5757 5758 5759 5760 5761 5762 5763 5764 5764 5764 5765 5765 5766 5766 5767 5767 5767 5767 5766 5765
5707 5710 5712 5714 5716 5718 5720 5722 5723 5725 5727 5728 5730 5731 5732 5734 5735 5737 5738 5739 5740 5741 5743 5744 5745 5746 5748 5748 5749 5750 5751 5751 5752 5753 5753 5754 5754 5755 5756 5756 5756 5756 5756 5755
5699 5702 5704 5706 5708 5709 5711 5713 5714 5715 5717 5718 5719 5720 5721 5723 5724 5726 5727 5728 5729 5730 5731 5732 5733 5735 5736 5737 5737 5738 5738 5739 5740 5741 5742 5743 5744 5744 5745 5745 5746 5746 5746 5745
5692 5694 5696 5698 5699 5701 5702 5703 5705 5706 5707 5708 5709 5710 5711 5713 5714 5715 5717 5719 5720 5720 5721 5722 5723 5724 5726 5726 5726 5727 5727 5728 5729 5730 5732 5732 5733 5734 5734 5735 5735 5735 5735 5735
5684 5686 5688 5689 5691 5692 5694 5694 5696 5697 5698 5699 5700 5701 5702 5703 5704 5706 5707 5709 5710 5711 5711 5712 5713 5715 5715 5716 5716 5717 5718 5718 5719 5720 5722 5722 5723 5723 5724 5724 5724 5724 5724 5724
5677 5679 5680 5682 5683 5685 5686 5686 5687 5688 5689 5690 5691 5692 5693 5694 5695 5697 5699 5700 5701 5702 5702 5704 5704 5705 5706 5707 5707 5708 5709 5710 5710 5712 5712 5712 5713 5713 5713 5713 5713 5713 5713 5713
5671 5673 5674 5675 5676 5678 5678 5679 5680 5680 5681 5682 5683 5683 5684 5686 5687 5688 5690 5691 5692 5693 5694 5695 5696 5697 5697 5698 5699 5700 5701 5701 5702 5703 5703 5704 5704 5704 5704 5704 5703 5703 5703 5703
5666 5667 5668 5669 5670 5671 5671 5672 5672 5672 5673 5674 5675 5675 5676 5677 5679 5680 5681 5682 5683 5684 5685 5686 5687 5688 5689 5690 5691 5692 5692 5693 5693 5694 5694 5695 5695 5695 5695 5694 5694 5694 5693 5693
5661 5662 5663 5663 5664 5665 5665 5665 5665 5665 5666 5666 5667 5668 5669 5670 5671 5672 5673 5674 5675 5676 5677 5678 5679 5680 5681 5682 5683 5683 5684 5684 5685 5685 5686 5687 5687 5686 5686 5686 5686 5685 5685 5685
5656 5657 5657 5658 5658 5658 5658 5659 5659 5659 5659 5659 5660 5661 5661 5662 5663 5664 5665 5666 5667 5668 5669 5669 5670 5671 5672 5674 5675 5675 5676 5677 5677 5678 5678 5678 5678 5678 5678 5678 5678 5678 5677 5677